ASTRA 2G

Last updated on Sat Aug 15 2026 00:02:59 GMT+0000 (Coordinated Universal Time)

1 40364U 14089A 26226.57351609 .00000134 00000+0 00000+0 0 9999 2 40364 0.0523 346.9074 0003494 100.1265 110.5845 1.00270056 42558
UTC large
Height (km)
Speed (km/s)
/
Latitude / Longitude
Inclination (degrees)
Orbital Period (minutes)
Azimuth
Elevation
Range (km)
Doppler Factor

Next 0 passes for location: London (51.5072 / 0.1276)

No passes found over London.
ASTRA 2G